TimeMST,TemperatureF,Dew PointF,Humidity,Sea Level PressureIn,VisibilityMPH,Wind Direction,Wind SpeedMPH,Gust SpeedMPH,PrecipitationIn,Events,Conditions,WindDirDegrees,DateUTC
12:48 AM,15.1,10.9,84,29.94,-9999.0,West,4.6,-,N/A,,Unknown,270,2013-01-07 07:48:00
1:48 AM,18.0,14.0,84,29.93,-9999.0,WNW,5.8,-,N/A,,Unknown,290,2013-01-07 08:48:00
2:48 AM,19.0,14.0,81,29.94,-9999.0,WNW,6.9,-,N/A,,Unknown,300,2013-01-07 09:48:00
3:48 AM,23.0,16.0,74,29.93,-9999.0,WNW,10.4,-,N/A,,Unknown,290,2013-01-07 10:48:00
4:48 AM,21.0,16.0,81,29.94,-9999.0,WSW,4.6,-,N/A,,Unknown,250,2013-01-07 11:48:00
5:48 AM,21.0,16.0,81,29.95,-9999.0,Calm,Calm,-,N/A,,Unknown,0,2013-01-07 12:48:00
6:48 AM,21.0,15.1,78,29.97,-9999.0,WNW,6.9,-,N/A,,Unknown,300,2013-01-07 13:48:00
7:48 AM,24.1,18.0,77,29.96,-9999.0,West,6.9,-,N/A,,Unknown,280,2013-01-07 14:48:00
8:48 AM,28.0,19.0,69,29.97,-9999.0,NW,5.8,-,N/A,,Unknown,310,2013-01-07 15:48:00
9:48 AM,28.9,19.9,69,29.98,-9999.0,West,5.8,-,N/A,,Unknown,260,2013-01-07 16:48:00
10:48 AM,33.1,21.9,64,29.96,-9999.0,WSW,5.8,-,N/A,,Unknown,250,2013-01-07 17:48:00
11:48 AM,37.0,21.9,54,29.93,-9999.0,WSW,8.1,-,N/A,,Unknown,250,2013-01-07 18:48:00
12:48 PM,39.0,23.0,53,29.89,-9999.0,West,5.8,-,N/A,,Unknown,260,2013-01-07 19:48:00
1:48 PM,39.0,24.1,55,29.86,-9999.0,SW,8.1,-,N/A,,Unknown,230,2013-01-07 20:48:00
2:48 PM,37.9,24.1,57,29.85,-9999.0,South,6.9,-,N/A,,Unknown,190,2013-01-07 21:48:00
3:48 PM,34.0,24.1,67,29.83,-9999.0,Calm,Calm,-,N/A,,Unknown,0,2013-01-07 22:48:00
4:48 PM,28.9,21.9,75,29.82,-9999.0,Variable,4.6,-,N/A,,Unknown,0,2013-01-07 23:48:00
5:48 PM,26.1,19.9,78,29.80,-9999.0,SE,3.5,-,N/A,,Unknown,140,2013-01-08 00:48:00
6:48 PM,28.0,19.9,72,29.75,-9999.0,East,5.8,-,N/A,,Unknown,80,2013-01-08 01:48:00
7:48 PM,32.0,21.9,66,29.71,-9999.0,South,10.4,-,N/A,,Unknown,180,2013-01-08 02:48:00
8:48 PM,36.0,25.0,64,29.68,-9999.0,SSW,17.3,21.9,N/A,,Unknown,200,2013-01-08 03:48:00
9:48 PM,33.1,30.0,89,29.66,-9999.0,SSW,10.4,-,N/A,,Unknown,200,2013-01-08 04:48:00
10:48 PM,34.0,28.9,82,29.62,-9999.0,SSW,12.7,-,N/A,,Unknown,200,2013-01-08 05:48:00
11:48 PM,34.0,28.9,82,29.62,-9999.0,NW,3.5,-,N/A,,Unknown,310,2013-01-08 06:48:00